Weather in Bad Reichenhall

Germany     47°43′15″N   12°52′26″E
temp.,
°C
wind,
m/s
gust,
m/s
humid.,
%
clouds,
%
prec.,
mm/h
press.,
hPa
HPBL,
m
16 september, thu
thu1623:00+15w2299100 2.7 101773
02:00+15sse119891 4.9 101629
05:00+15s1299100 3.2 101654
08:00+15wnw0097100 4.4 101625
11:00+16w1194100 1.6 101640
14:00+15wsw2398100 7.7 1016120
17:00+15ssw2296100 2.4 101575
20:00+14w1196100 3.0 101614
17 september, fri
fri1723:00+13nw2399100 12.1 1016267
02:00+12wnw129998 16.1 1017129
05:00+11nw129981 0.1 101792
08:00+11nw119897 0.1 1017137
11:00+13nnw128570 0.1 1017623
14:00+14nne117398 0.2 1016727
17:00+15nnw116979 0.1 1015670
20:00+12wsw008693 0.2 101611
18 september, sat
sat1823:00+12sw0084100 0.1 101611
02:00+11s1186100 0.1 101611
05:00+8ssw22914 0.0 101720
08:00+10ssw228518 0.0 101753
11:00+15n216131 0.0 1016968
14:00+17nne235636 0.0 10151315
17:00+16nne226255 0.0 1014941
20:00+10s11934 0.0 101610
19 september, sun
sun1923:00+9ssw22930 0.0 101616
02:00+8ssw22910 0.0 101519
05:00+8s11930 0.0 101512
08:00+9sse11851 0.0 101440
11:00+15ne226197 0.0 1012798
14:00+17ne3261100 0.0 10111087
17:00+15nne3372100 0.0 1011887
20:00+11n2489100 0.1 1014395
20 september, mon
mon2023:00+10nne1192100 0.1 101771
02:00+9sse018996 0.1 101723
05:00+7s119422 0.0 101811
08:00+8sse118673 0.0 101850
11:00+12nne217095 0.0 1019497
14:00+14nne226086 0.1 1019880
17:00+14nne216018 0.0 10181012
20:00+7s11946 0.0 102110